DAL2663 KDEN-KSLC

Flight info

Callsign DAL2663
Flight time 0h 56m
Altitude 28000
Route YELLO5 LAR J54 CKW OCS LHO5
Aircraft B722/M-Z/C

Departure

Time 2026-05-08 04:26
Airport Denver International Airport (KDEN)

Arrival

Time 2026-05-08 05:22
Airport Salt Lake City International Airport (KSLC)
Time Latitude Longitude Altitude Speed Heading
2026-05-08 03:54 39.85329 -104.67098 5446 ft 0 kts 20°
2026-05-08 04:19 39.85319 -104.67104 5446 ft 5 kts 13°
2026-05-08 04:19 39.85257 -104.67069 5446 ft 14 kts 316°
2026-05-08 04:19 39.85237 -104.67027 5446 ft 0 kts 268°
2026-05-08 04:19 39.85237 -104.67031 5446 ft 0 kts 268°
2026-05-08 04:20 39.85237 -104.67046 5446 ft 4 kts 268°
2026-05-08 04:20 39.85234 -104.67123 5446 ft 11 kts 269°
2026-05-08 04:20 39.85235 -104.67263 5446 ft 18 kts 270°
2026-05-08 04:20 39.85238 -104.67458 5446 ft 22 kts 272°
2026-05-08 04:21 39.85238 -104.67673 5446 ft 21 kts 270°
2026-05-08 04:21 39.85239 -104.67853 5446 ft 18 kts 270°
2026-05-08 04:21 39.85240 -104.67950 5446 ft 7 kts 271°
2026-05-08 04:21 39.85241 -104.68034 5446 ft 10 kts 270°
2026-05-08 04:22 39.85240 -104.68140 5446 ft 12 kts 267°
2026-05-08 04:22 39.85224 -104.68266 5446 ft 14 kts 255°
2026-05-08 04:22 39.85206 -104.68402 5446 ft 17 kts 269°
2026-05-08 04:22 39.85207 -104.68569 5446 ft 18 kts 266°
2026-05-08 04:23 39.85204 -104.68748 5446 ft 19 kts 270°
2026-05-08 04:23 39.85199 -104.68935 5446 ft 17 kts 268°
2026-05-08 04:23 39.85197 -104.69079 5446 ft 14 kts 270°
2026-05-08 04:23 39.85197 -104.69214 5446 ft 14 kts 270°
2026-05-08 04:24 39.85199 -104.69340 5446 ft 11 kts 271°
2026-05-08 04:24 39.85202 -104.69442 5446 ft 10 kts 271°
2026-05-08 04:24 39.85203 -104.69550 5446 ft 12 kts 268°
2026-05-08 04:24 39.85229 -104.69635 5446 ft 8 kts 332°
2026-05-08 04:25 39.85402 -104.69659 5446 ft 54 kts
2026-05-08 04:25 39.86006 -104.69649 5446 ft 114 kts
2026-05-08 04:25 39.86984 -104.69656 5496 ft 151 kts
2026-05-08 04:25 39.88038 -104.69771 5895 ft 146 kts 354°
2026-05-08 04:26 39.88983 -104.70397 6022 ft 163 kts 310°
2026-05-08 04:26 39.89550 -104.71709 6346 ft 162 kts 301°
2026-05-08 04:26 39.90031 -104.73141 6521 ft 173 kts 298°
2026-05-08 04:26 39.90511 -104.74636 6874 ft 173 kts 297°
2026-05-08 04:27 39.91013 -104.76157 7088 ft 186 kts 300°
2026-05-08 04:27 39.91539 -104.77757 7485 ft 190 kts 297°
2026-05-08 04:27 39.91909 -104.79489 7895 ft 198 kts 282°
2026-05-08 04:27 39.91943 -104.81365 8087 ft 208 kts 270°
2026-05-08 04:28 39.91821 -104.83318 8242 ft 219 kts 269°
2026-05-08 04:28 39.91700 -104.85400 8574 ft 228 kts 270°
2026-05-08 04:28 39.91612 -104.87607 8905 ft 244 kts 272°
2026-05-08 04:28 39.91583 -104.89918 9312 ft 256 kts 274°
2026-05-08 04:29 39.91623 -104.92326 9863 ft 262 kts 276°
2026-05-08 04:29 39.91733 -104.94782 10569 ft 262 kts 278°
2026-05-08 04:29 39.91907 -104.97244 11037 ft 272 kts 279°
2026-05-08 04:29 39.92134 -104.99751 11549 ft 279 kts 280°
2026-05-08 04:30 39.92399 -105.02343 12196 ft 282 kts 280°
2026-05-08 04:30 39.92672 -105.04954 12864 ft 284 kts 279°
2026-05-08 04:30 39.92935 -105.07613 13324 ft 292 kts 279°
2026-05-08 04:30 39.93177 -105.10352 13859 ft 298 kts 278°
2026-05-08 04:31 39.93390 -105.13130 14441 ft 301 kts 277°
2026-05-08 04:31 39.93570 -105.15945 14948 ft 307 kts 276°
2026-05-08 04:31 39.93724 -105.18842 15371 ft 315 kts 276°
2026-05-08 04:31 39.93862 -105.21794 15865 ft 320 kts 275°
2026-05-08 04:32 39.93990 -105.24771 16418 ft 322 kts 275°
2026-05-08 04:32 39.94117 -105.27773 16989 ft 323 kts 275°
2026-05-08 04:32 39.94249 -105.30756 17523 ft 325 kts 276°
2026-05-08 04:32 39.94394 -105.33800 18020 ft 327 kts 276°
2026-05-08 04:33 39.94550 -105.36847 18487 ft 330 kts 276°
2026-05-08 04:33 39.94717 -105.39911 18946 ft 333 kts 277°
2026-05-08 04:33 39.94896 -105.43035 19410 ft 335 kts 277°
2026-05-08 04:33 39.95078 -105.46134 19862 ft 337 kts 277°
2026-05-08 04:34 39.95263 -105.49271 20304 ft 339 kts 277°
2026-05-08 04:34 39.95450 -105.52432 20730 ft 341 kts 277°
2026-05-08 04:34 39.95636 -105.55617 21143 ft 343 kts 277°
2026-05-08 04:34 39.95818 -105.58788 21540 ft 345 kts 277°
2026-05-08 04:35 39.96001 -105.62024 21930 ft 348 kts 277°
2026-05-08 04:35 39.96178 -105.65225 22300 ft 350 kts 276°
2026-05-08 04:35 39.96356 -105.68523 22671 ft 352 kts 276°
2026-05-08 04:35 39.96529 -105.71770 23025 ft 354 kts 276°
2026-05-08 04:36 39.96704 -105.75071 23374 ft 356 kts 276°
2026-05-08 04:36 39.96879 -105.78384 23712 ft 358 kts 276°
2026-05-08 04:36 39.97053 -105.81705 24039 ft 360 kts 276°
2026-05-08 04:36 39.97229 -105.85074 24360 ft 362 kts 276°
2026-05-08 04:37 39.97405 -105.88442 24672 ft 364 kts 276°
2026-05-08 04:37 39.97580 -105.91808 24972 ft 366 kts 277°
2026-05-08 04:37 39.97758 -105.95250 25269 ft 368 kts 277°
2026-05-08 04:37 39.97933 -105.98638 25554 ft 369 kts 277°
2026-05-08 04:38 39.98108 -106.02068 25830 ft 371 kts 277°
2026-05-08 04:38 39.98285 -106.05554 26103 ft 373 kts 277°
2026-05-08 04:38 39.98459 -106.08986 26364 ft 374 kts 277°
2026-05-08 04:38 39.98636 -106.12499 26620 ft 376 kts 277°
2026-05-08 04:39 39.98808 -106.15959 26868 ft 378 kts 277°
2026-05-08 04:39 39.98984 -106.19490 27111 ft 379 kts 277°
2026-05-08 04:39 39.99156 -106.22996 27349 ft 381 kts 277°
2026-05-08 04:39 39.99330 -106.26559 27579 ft 382 kts 277°
2026-05-08 04:40 39.99502 -106.30087 27805 ft 384 kts 277°
2026-05-08 04:40 39.99676 -106.33695 28025 ft 385 kts 277°
2026-05-08 04:40 39.99848 -106.37280 28138 ft 390 kts 277°
2026-05-08 04:40 40.00021 -106.40879 28172 ft 393 kts 277°
2026-05-08 04:41 40.00372 -106.48238 28165 ft 398 kts 277°
2026-05-08 04:41 40.00722 -106.55706 28147 ft 404 kts 277°
2026-05-08 04:42 40.01055 -106.62969 28144 ft 409 kts 277°
2026-05-08 04:42 40.01400 -106.70658 28145 ft 414 kts 276°
2026-05-08 04:43 40.01744 -106.78416 28144 ft 420 kts 276°
2026-05-08 04:43 40.02092 -106.86256 28143 ft 425 kts 276°
2026-05-08 04:44 40.02453 -106.94207 28142 ft 432 kts 276°
2026-05-08 04:44 40.02811 -107.02317 28141 ft 440 kts 275°
2026-05-08 04:45 40.03155 -107.10620 28133 ft 450 kts 275°
2026-05-08 04:45 40.03480 -107.19041 28117 ft 459 kts 275°
2026-05-08 04:46 40.03811 -107.27659 28104 ft 468 kts 275°
2026-05-08 04:46 40.04157 -107.36471 28099 ft 476 kts 275°
2026-05-08 04:47 40.04508 -107.45397 28097 ft 483 kts 275°
2026-05-08 04:47 40.04857 -107.54413 28093 ft 488 kts 275°
2026-05-08 04:48 40.05201 -107.63557 28096 ft 492 kts 275°
2026-05-08 04:48 40.05539 -107.72764 28101 ft 495 kts 274°
2026-05-08 04:49 40.05859 -107.81657 28102 ft 498 kts 274°
2026-05-08 04:49 40.06192 -107.90946 28124 ft 500 kts 274°
2026-05-08 04:50 40.06577 -108.00276 28120 ft 502 kts 275°
2026-05-08 04:50 40.06998 -108.09629 28118 ft 503 kts 275°
2026-05-08 04:51 40.07415 -108.19019 28118 ft 503 kts 275°
2026-05-08 04:51 40.07814 -108.28342 28118 ft 502 kts 275°
2026-05-08 04:52 40.08205 -108.37711 28118 ft 502 kts 275°
2026-05-08 04:52 40.08584 -108.46993 28118 ft 502 kts 275°
2026-05-08 04:53 40.08961 -108.56368 28112 ft 502 kts 275°
2026-05-08 04:53 40.09330 -108.65725 28103 ft 502 kts 274°
2026-05-08 04:54 40.09689 -108.75061 28094 ft 502 kts 274°
2026-05-08 04:54 40.10045 -108.84463 28089 ft 502 kts 274°
2026-05-08 04:55 40.10394 -108.93777 28083 ft 502 kts 274°
2026-05-08 04:55 40.10744 -109.03172 28080 ft 503 kts 275°
2026-05-08 04:56 40.11080 -109.12529 28081 ft 504 kts 275°
2026-05-08 04:56 40.11416 -109.21938 28081 ft 505 kts 275°
2026-05-08 04:57 40.11754 -109.31410 28082 ft 506 kts 275°
2026-05-08 04:57 40.12079 -109.40813 28082 ft 507 kts 275°
2026-05-08 04:58 40.12397 -109.50345 28082 ft 508 kts 275°
2026-05-08 04:58 40.12701 -109.59759 28082 ft 509 kts 275°
2026-05-08 04:59 40.13001 -109.69267 28082 ft 510 kts 274°
2026-05-08 04:59 40.13294 -109.78818 28082 ft 510 kts 274°
2026-05-08 05:00 40.13573 -109.88223 28437 ft 488 kts 274°
2026-05-08 05:00 40.13697 -109.92716 28837 ft 466 kts 274°
2026-05-08 05:00 40.13810 -109.96941 29183 ft 446 kts 274°
2026-05-08 05:01 40.13922 -110.01073 28867 ft 442 kts 274°
2026-05-08 05:01 40.14041 -110.05191 28476 ft 439 kts 274°
2026-05-08 05:01 40.14163 -110.09236 28086 ft 436 kts 275°
2026-05-08 05:01 40.14263 -110.13303 27639 ft 433 kts 273°
2026-05-08 05:02 40.14285 -110.17351 27048 ft 432 kts 272°
2026-05-08 05:02 40.14268 -110.21371 26354 ft 433 kts 271°
2026-05-08 05:02 40.14230 -110.25404 25683 ft 434 kts 271°
2026-05-08 05:02 40.14180 -110.29449 25052 ft 433 kts 271°
2026-05-08 05:03 40.14126 -110.33463 24518 ft 430 kts 271°
2026-05-08 05:03 40.14070 -110.37472 24039 ft 425 kts 271°
2026-05-08 05:03 40.14016 -110.41423 23566 ft 421 kts 271°
2026-05-08 05:03 40.13965 -110.45284 23078 ft 418 kts 271°
2026-05-08 05:04 40.13915 -110.49209 22559 ft 415 kts 271°
2026-05-08 05:04 40.13869 -110.53027 22051 ft 412 kts 271°
2026-05-08 05:04 40.13824 -110.56854 21549 ft 409 kts 271°
2026-05-08 05:04 40.13779 -110.60657 21058 ft 406 kts 271°
2026-05-08 05:05 40.13734 -110.64432 20572 ft 402 kts 271°
2026-05-08 05:05 40.13686 -110.68188 20084 ft 400 kts 270°
2026-05-08 05:05 40.13638 -110.71890 19612 ft 397 kts 270°
2026-05-08 05:05 40.13588 -110.75609 19217 ft 395 kts 270°
2026-05-08 05:06 40.13537 -110.79286 18873 ft 392 kts 270°
2026-05-08 05:06 40.13484 -110.82916 18537 ft 389 kts 270°
2026-05-08 05:06 40.13430 -110.86514 18177 ft 387 kts 270°
2026-05-08 05:06 40.13375 -110.90153 17782 ft 385 kts 270°
2026-05-08 05:07 40.13318 -110.93761 17371 ft 385 kts 270°
2026-05-08 05:07 40.13261 -110.97312 16975 ft 384 kts 270°
2026-05-08 05:07 40.13203 -111.00926 16585 ft 383 kts 270°
2026-05-08 05:07 40.13146 -111.04469 16210 ft 381 kts 270°
2026-05-08 05:08 40.13088 -111.08044 15837 ft 380 kts 270°
2026-05-08 05:08 40.13031 -111.11578 15469 ft 379 kts 270°
2026-05-08 05:08 40.12973 -111.15120 15166 ft 376 kts 270°
2026-05-08 05:08 40.12913 -111.18591 15067 ft 372 kts 270°
2026-05-08 05:09 40.12853 -111.22112 15040 ft 384 kts 270°
2026-05-08 05:09 40.12797 -111.25737 15023 ft 396 kts 270°
2026-05-08 05:09 40.12740 -111.29504 15022 ft 406 kts 270°
2026-05-08 05:09 40.12682 -111.33314 15022 ft 412 kts 270°
2026-05-08 05:10 40.12621 -111.37159 15018 ft 408 kts 270°
2026-05-08 05:10 40.12500 -111.44481 15007 ft 375 kts 270°
2026-05-08 05:10 40.12441 -111.47871 14994 ft 345 kts 270°
2026-05-08 05:11 40.12386 -111.50935 14999 ft 321 kts 270°
2026-05-08 05:11 40.12457 -111.53914 15006 ft 315 kts 284°
2026-05-08 05:11 40.13434 -111.56525 15014 ft 312 kts 311°
2026-05-08 05:11 40.15000 -111.58562 15022 ft 311 kts 319°
2026-05-08 05:12 40.16674 -111.60403 14838 ft 306 kts 321°
2026-05-08 05:12 40.18386 -111.62212 14550 ft 304 kts 321°
2026-05-08 05:12 40.20060 -111.63997 14254 ft 303 kts 321°
2026-05-08 05:12 40.21727 -111.65776 13942 ft 302 kts 321°
2026-05-08 05:13 40.23400 -111.67563 13580 ft 303 kts 321°
2026-05-08 05:13 40.25075 -111.69350 13228 ft 304 kts 321°
2026-05-08 05:13 40.26749 -111.71135 12923 ft 303 kts 321°
2026-05-08 05:13 40.28418 -111.72913 12651 ft 301 kts 321°
2026-05-08 05:14 40.30092 -111.74695 12378 ft 299 kts 321°
2026-05-08 05:14 40.31742 -111.76449 12096 ft 298 kts 321°
2026-05-08 05:14 40.33393 -111.78204 11805 ft 297 kts 321°
2026-05-08 05:14 40.35050 -111.79966 11667 ft 299 kts 321°
2026-05-08 05:15 40.36676 -111.81695 11445 ft 295 kts 321°
2026-05-08 05:15 40.38305 -111.83428 11156 ft 293 kts 321°
2026-05-08 05:15 40.39926 -111.85153 11055 ft 288 kts 321°
2026-05-08 05:15 40.41540 -111.86871 11027 ft 295 kts 321°
2026-05-08 05:16 40.43188 -111.88627 11013 ft 300 kts 321°
2026-05-08 05:16 40.44865 -111.90409 11014 ft 304 kts 322°
2026-05-08 05:16 40.46610 -111.92117 11015 ft 303 kts 324°
2026-05-08 05:16 40.48331 -111.93734 11012 ft 298 kts 324°
2026-05-08 05:17 40.50070 -111.95311 10968 ft 292 kts 331°
2026-05-08 05:17 40.52008 -111.96244 10783 ft 286 kts 346°
2026-05-08 05:17 40.53989 -111.96735 10501 ft 282 kts 352°
2026-05-08 05:17 40.55982 -111.97041 10214 ft 277 kts 354°
2026-05-08 05:18 40.57903 -111.97289 9932 ft 271 kts 355°
2026-05-08 05:18 40.59821 -111.97524 9608 ft 265 kts 355°
2026-05-08 05:18 40.61620 -111.97738 9212 ft 245 kts 355°
2026-05-08 05:18 40.63253 -111.97930 8711 ft 217 kts 355°
2026-05-08 05:19 40.64697 -111.98099 8242 ft 188 kts 356°
2026-05-08 05:19 40.65957 -111.98247 7616 ft 172 kts 356°
2026-05-08 05:19 40.67137 -111.98383 6904 ft 165 kts 356°
2026-05-08 05:19 40.68275 -111.98508 6201 ft 161 kts 357°
2026-05-08 05:20 40.69383 -111.98628 5683 ft 156 kts 357°
2026-05-08 05:20 40.70469 -111.98743 5655 ft 152 kts 357°
2026-05-08 05:20 40.71559 -111.98859 5413 ft 153 kts 357°
2026-05-08 05:20 40.72654 -111.98981 5203 ft 153 kts 356°
2026-05-08 05:21 40.73739 -111.99104 5002 ft 154 kts 356°
2026-05-08 05:21 40.74826 -111.99231 4792 ft 154 kts 356°
2026-05-08 05:21 40.75925 -111.99361 4579 ft 153 kts 356°
2026-05-08 05:21 40.77013 -111.99488 4368 ft 153 kts 356°
2026-05-08 05:22 40.78048 -111.99611 4236 ft 143 kts 356°
2026-05-08 05:22 40.78943 -111.99716 4228 ft 106 kts 355°
2026-05-08 05:22 40.79384 -111.99735 4228 ft 16 kts 21°
2026-05-08 05:22 40.79439 -111.99702 4228 ft 13 kts 28°
2026-05-08 05:23 40.79511 -111.99625 4228 ft 0 kts 64°
2026-05-08 05:23 40.79512 -111.99623 4228 ft 1 kts 64°
2026-05-08 05:24 40.79527 -111.99576 4228 ft 9 kts 71°
2026-05-08 05:24 40.79525 -111.99475 4229 ft 9 kts 160°
2026-05-08 05:24 40.79437 -111.99455 4228 ft 15 kts 175°
2026-05-08 05:24 40.79310 -111.99442 4228 ft 20 kts 176°
2026-05-08 05:25 40.79150 -111.99421 4228 ft 24 kts 173°
2026-05-08 05:25 40.78965 -111.99400 4228 ft 26 kts 175°
2026-05-08 05:25 40.78772 -111.99378 4228 ft 27 kts 175°
2026-05-08 05:25 40.78637 -111.99336 4228 ft 11 kts 126°
2026-05-08 05:26 40.78637 -111.99264 4228 ft 7 kts 87°
2026-05-08 05:26 40.78640 -111.99195 4228 ft 7 kts 86°
2026-05-08 05:26 40.78644 -111.99122 4228 ft 8 kts 86°
2026-05-08 05:26 40.78647 -111.99039 4228 ft 9 kts 87°
2026-05-08 05:27 40.78627 -111.98965 4228 ft 7 kts 160°
2026-05-08 05:27 40.78610 -111.98965 4228 ft 1 kts 179°
2026-05-08 05:27 40.78605 -111.98965 4228 ft 1 kts 179°
2026-05-08 05:27 40.78589 -111.98964 4228 ft 0 kts 177°
2026-05-08 05:28 40.78588 -111.98964 4228 ft 0 kts 177°